Home   Weather   Urbana   Past weeks

Flag for USA Past Weather in Urbana, Illinois, USA — Yesterday and Last 2 Weeks

Now
34 °F

Fog.


Feels Like: 28 °F
Forecast: 35 / 44 °F
Wind: 7 mph from Southeast

Location: University Of Illinois-Willard Airport

Current Time: Jan 19, 2017 at 2:53:42 am

Latest Report: Jan 19, 2017 at 1:53 am


Visibility: 4 mi

Pressure: 30.08 "Hg

Humidity: 92%

Dew Point: 32 °F

Location of UrbanaLocation

Past Weather in Urbana — Graph

°F

Urbana Temperature Yesterday

Maximum temperature yesterday: 40 °F (at 1:53 pm)
Minimum temperature yesterday: 33 °F (at 8:53 pm)
Average temperature yesterday: 37 °F

High & Low Weather Summary for the Past Weeks

 TemperatureHumidityPressure
High60 °F (Jan 11, 8:53 pm)97% (Jan 11, 10:29 am)30.81 "Hg (Jan 11, 10:29 am)
Low-4 °F (Jan 6, 6:53 am)53% (Jan 8, 2:53 pm)29.44 "Hg (Jan 10, 1:53 pm)
Average28 °F81%30.20 "Hg
* Reported Jan 4 12:53 am — Jan 19 12:53 am, Urbana, Weather by CustomWeather, © 2017

Note: Actual official high and low records may vary slightly from our data, if they occured in-between our weather recording intervals... More about our weather records

Advertising

Urbana Weather History for the Previous 24 Hours

Scroll right to see more
 ConditionsComfort  
Time TempWeatherWind HumidityBarometerVisibility
12:53 am
Thu, Jan 19
33 °FFog.3 mph92%30.09 "Hg4 mi
11:53 pm
Wed, Jan 18
34 °FFog.5 mph92%30.10 "Hg5 mi
10:53 pm35 °FFog.9 mph88%30.11 "Hg6 mi
9:53 pm34 °FFog.9 mph92%30.12 "Hg5 mi
8:53 pm33 °FFog.6 mph92%30.13 "Hg5 mi
7:53 pm35 °FClear.8 mph88%30.13 "Hg8 mi
6:53 pm35 °FClear.6 mph88%30.14 "Hg8 mi
5:53 pm36 °FClear.6 mph89%30.13 "Hg10 mi
5:21 pm37 °FPassing clouds.9 mph89%30.11 "Hg10 mi
4:53 pm38 °FPartly sunny.10 mph86%30.12 "Hg10 mi
3:53 pm40 °FOvercast.15 mph83%30.12 "Hg10 mi
2:53 pm40 °FOvercast.15 mph83%30.12 "Hg10 mi
1:53 pm40 °FOvercast.12 mph80%30.14 "Hg10 mi
12:53 pm39 °FPartly sunny.9 mph79%30.16 "Hg10 mi
11:53 am39 °FOvercast.10 mph79%30.19 "Hg10 mi
10:53 am38 °FOvercast.13 mph83%30.23 "Hg10 mi
10:23 am38 °FOvercast.12 mph83%30.22 "Hg10 mi
10:00 am37 °FLow clouds.9 mph86%30.22 "Hg10 mi
9:15 am36 °FMostly cloudy.9 mph89%30.22 "Hg9 mi
8:53 am36 °FLow clouds.10 mph92%30.23 "Hg8 mi
8:29 am36 °FLow clouds.7 mph89%30.20 "Hg7 mi
7:53 am35 °FLow clouds.9 mph92%30.20 "Hg7 mi
6:53 am36 °FLow clouds.15 mph89%30.20 "Hg8 mi
5:53 am36 °FLow clouds.15 mph89%30.18 "Hg10 mi
4:53 am36 °FLow clouds.16 mph89%30.17 "Hg9 mi
3:53 am36 °FLow clouds.16 mph92%30.16 "Hg7 mi
2:53 am37 °FFog.16 mph89%30.15 "Hg6 mi
Weather by CustomWeather, © 2017

See weather overviewHow to use our weather pages